TimePST,TemperatureF,Dew PointF,Humidity,Sea Level PressureIn,VisibilityMPH,Wind Direction,Wind SpeedMPH,Gust SpeedMPH,PrecipitationIn,Events,Conditions,WindDirDegrees,DateUTC
12:53 AM,54.0,43.0,66,30.01,10.0,SSE,17.3,-,N/A,,Scattered Clouds,160,2012-12-21 08:53:00
1:53 AM,55.0,44.1,67,30.00,10.0,SSE,21.9,27.6,N/A,,Overcast,160,2012-12-21 09:53:00
2:53 AM,55.0,42.1,62,29.99,10.0,SSE,24.2,-,N/A,,Mostly Cloudy,160,2012-12-21 10:53:00
3:53 AM,55.9,41.0,57,29.96,10.0,SSE,24.2,33.4,N/A,,Overcast,160,2012-12-21 11:53:00
4:53 AM,54.0,39.0,57,29.95,10.0,SSE,21.9,29.9,N/A,,Mostly Cloudy,150,2012-12-21 12:53:00
5:53 AM,54.0,41.0,62,29.96,10.0,SSE,16.1,-,N/A,,Overcast,150,2012-12-21 13:53:00
6:53 AM,55.0,39.0,55,29.97,10.0,SE,18.4,-,N/A,,Overcast,140,2012-12-21 14:53:00
7:53 AM,54.0,39.0,57,29.93,10.0,ESE,17.3,24.2,N/A,,Overcast,120,2012-12-21 15:53:00
8:53 AM,55.9,41.0,57,29.96,10.0,SSE,26.5,36.8,N/A,,Overcast,150,2012-12-21 16:53:00
9:53 AM,55.9,41.0,57,29.96,10.0,SSE,24.2,32.2,0.00,Rain,Light Rain,150,2012-12-21 17:53:00
10:53 AM,53.1,43.0,69,29.96,10.0,SE,17.3,-,0.02,,Overcast,140,2012-12-21 18:53:00
11:40 AM,53.6,44.6,72,29.96,6.0,SSE,19.6,-,0.00,Rain,Light Rain,150,2012-12-21 19:40:00
11:53 AM,53.1,45.0,74,29.96,9.0,SE,17.3,-,0.01,Rain,Light Rain,140,2012-12-21 19:53:00
12:53 PM,55.0,46.0,72,29.93,10.0,SE,16.1,-,0.00,,Overcast,140,2012-12-21 20:53:00
1:53 PM,55.9,48.9,77,29.92,10.0,South,17.3,-,0.00,Rain,Light Rain,170,2012-12-21 21:53:00
2:16 PM,57.2,48.2,72,29.92,10.0,South,18.4,26.5,0.00,,Overcast,170,2012-12-21 22:16:00
2:29 PM,55.4,48.2,77,29.92,10.0,SSE,17.3,26.5,0.00,,Overcast,160,2012-12-21 22:29:00
2:53 PM,57.0,50.0,77,29.91,10.0,South,20.7,-,0.00,,Overcast,170,2012-12-21 22:53:00
3:53 PM,57.0,50.0,77,29.92,10.0,SSE,19.6,31.1,0.00,Rain,Light Rain,160,2012-12-21 23:53:00
4:53 PM,55.0,52.0,89,29.93,5.0,South,15.0,-,0.00,Rain,Light Rain,170,2012-12-22 00:53:00
5:07 PM,55.4,51.8,88,29.93,9.0,South,15.0,-,0.00,,Overcast,170,2012-12-22 01:07:00
5:12 PM,55.4,51.8,88,29.94,10.0,South,15.0,-,0.00,Rain,Light Rain,180,2012-12-22 01:12:00
5:31 PM,55.4,51.8,88,29.93,10.0,South,13.8,-,0.01,,Mostly Cloudy,170,2012-12-22 01:31:00
5:53 PM,55.0,52.0,89,29.92,10.0,SSE,15.0,-,0.01,,Mostly Cloudy,160,2012-12-22 01:53:00
6:53 PM,54.0,52.0,93,29.93,10.0,SE,13.8,-,N/A,,Mostly Cloudy,140,2012-12-22 02:53:00
7:39 PM,55.4,53.6,94,29.93,10.0,SSE,17.3,-,0.00,Rain,Light Rain,150,2012-12-22 03:39:00
7:53 PM,54.0,53.1,97,29.92,5.0,SSE,13.8,-,0.00,Rain,Light Rain,150,2012-12-22 03:53:00
7:59 PM,53.6,53.6,100,29.93,5.0,SSE,13.8,-,0.00,Rain,Light Rain,150,2012-12-22 03:59:00
8:01 PM,53.6,53.6,100,29.92,2.5,SSE,12.7,-,0.00,Rain,Light Rain,150,2012-12-22 04:01:00
8:06 PM,53.6,53.6,100,29.92,7.0,SSE,13.8,-,0.01,Rain,Light Rain,150,2012-12-22 04:06:00
8:36 PM,55.4,53.6,94,29.93,7.0,SSE,10.4,-,0.03,Rain,Light Rain,160,2012-12-22 04:36:00
8:53 PM,55.0,51.1,86,29.93,9.0,South,11.5,-,0.03,Rain,Light Rain,170,2012-12-22 04:53:00
9:06 PM,55.4,51.8,88,29.93,9.0,South,12.7,-,0.00,Rain,Light Rain,170,2012-12-22 05:06:00
9:15 PM,55.4,51.8,88,29.93,9.0,SSE,15.0,-,0.00,Rain,Light Rain,150,2012-12-22 05:15:00
9:21 PM,55.4,51.8,88,29.93,9.0,SSE,15.0,-,0.00,Rain,Light Rain,160,2012-12-22 05:21:00
9:44 PM,53.6,48.2,82,29.92,9.0,SSE,13.8,-,0.01,Rain,Light Rain,150,2012-12-22 05:44:00
9:53 PM,54.0,50.0,86,29.94,5.0,SSE,16.1,-,0.02,Rain,Rain,150,2012-12-22 05:53:00
10:12 PM,53.6,50.0,88,29.92,10.0,SSE,16.1,-,N/A,Rain,Light Rain,150,2012-12-22 06:12:00
10:28 PM,53.6,50.0,88,29.91,10.0,SSE,18.4,-,N/A,Rain,Light Rain,150,2012-12-22 06:28:00
10:53 PM,54.0,48.0,80,29.91,10.0,SE,18.4,-,N/A,,Mostly Cloudy,140,2012-12-22 06:53:00
11:53 PM,54.0,46.0,75,29.90,10.0,SE,17.3,-,N/A,,Mostly Cloudy,140,2012-12-22 07:53:00